Content
SEND FEEDBACK

Daily
Averages
Monthly
Summary
United States of America

ACHANG BAY, GUAM


Home > North America > United States > Guam
Elevation: 30 feet     Latitude: 13 16N     Longitude: 144 45E

WEATHER
 
SELECT A DAY
Number of Records: 342,219;   Date Range: 1/1/95 - 8/28/14
 
SHARE

PRINT THIS DATA

[ ← Previous Day ]
WEATHER ALMANAC - FEBRUARY 18, 2013
[ Next Day → ]
[ °C ]   °F
Weather ElementAverageHighLow
Temperature78.2 °F83.7 °F (1:55 pm)74.7 °F (6:55 am)
Dewpoint72.1 °F73.6 °F (9:55 pm)68 °F (5:44 am)
Humidity81.7 %94 % (12:25 am)68 % (1:55 pm)
Barometer29.81 in29.84 in (7:33 am)29.75 in (3:24 pm)
Wind Speed21.5 mph26.5 mph (5:44 am)
Wind Gust33.4 mph (3:28 am)
Weather ElementAverage
Visibility9.8 mi
Wind DirectionENE (65.1 °)

Weather ElementTotal
Precipitation---
Cooling Degree Days14.2 (Base 65)
Growing Degree Days29.2 (Base 50)
Averaged from 84 records on February 18, 2013
WEATHER CONDITIONS BREAKOUT
WIND DIRECTION BREAKOUT
WEATHER BY HOUR - FEBRUARY 18, 2013
[ °C ]   °F
Local TimeTemperatureDewpointHumidityBarometerVisibilityWind DirectionWind SpeedGust SpeedPrecipitationEventsConditions
12:25 AM75.2 °F73.4 °F94 %29.81 in10.0 miENE (60°)19.6 mph26.5 mphMostly Cloudy
12:32 AM75.2 °F71.6 °F89 %29.81 in10.0 miENE (70°)25.3 mph31.1 mphMostly Cloudy
12:44 AM75.2 °F71.6 °F89 %29.81 in9.0 miENE (60°)19.6 mph28.8 mphMostly Cloudy
12:55 AM75.6 °F72.3 °F90 %29.81 in10.0 miNE (50°)20.7 mph0.00 inMostly Cloudy
1:12 AM77.0 °F71.6 °F83 %29.81 in10.0 miNE (50°)25.3 mph31.1 mphMostly Cloudy
1:29 AM77.0 °F71.6 °F83 %29.81 in10.0 miNE (50°)20.7 mphMostly Cloudy
1:33 AM77.0 °F71.6 °F83 %29.81 in10.0 miNE (50°)21.9 mph31.1 mphMostly Cloudy
1:35 AM77.0 °F71.6 °F83 %29.81 in10.0 miNE (50°)23.0 mph31.1 mphMostly Cloudy
1:49 AM77.0 °F71.6 °F83 %29.81 in10.0 miNE (50°)23.0 mph31.1 mphMostly Cloudy
1:55 AM77.0 °F71.1 °F82 %29.81 in10.0 miENE (60°)25.3 mphMostly Cloudy
2:38 AM77.0 °F73.4 °F89 %29.80 in10.0 miNE (50°)21.9 mph28.8 mphRainLight Rain
2:48 AM75.2 °F73.4 °F94 %29.80 in10.0 miNE (50°)23.0 mph28.8 mphRainLight Rain
2:50 AM75.2 °F71.6 °F89 %29.80 in10.0 miNE (50°)25.3 mphMostly Cloudy
2:55 AM76.1 °F71.8 °F86 %29.80 in10.0 miNE (50°)19.6 mph28.8 mph0.00 inMostly Cloudy
3:28 AM77.0 °F69.8 °F78 %29.80 in10.0 miENE (70°)24.2 mph33.4 mphMostly Cloudy
3:42 AM77.0 °F71.6 °F83 %29.80 in10.0 miENE (60°)20.7 mph33.4 mphMostly Cloudy
3:48 AM77.0 °F71.6 °F83 %29.80 in10.0 miENE (70°)20.7 mph29.9 mphMostly Cloudy
3:55 AM76.5 °F71.4 °F84 %29.80 in10.0 miENE (70°)18.4 mph29.9 mphMostly Cloudy
4:03 AM77.0 °F71.6 °F83 %29.80 in10.0 miENE (60°)21.9 mph26.5 mphMostly Cloudy
4:55 AM77.0 °F70.7 °F81 %29.81 in10.0 miENE (60°)23.0 mph32.2 mphMostly Cloudy
5:16 AM77.0 °F71.6 °F83 %29.81 in10.0 miENE (70°)18.4 mph27.6 mphMostly Cloudy
5:44 AM75.2 °F68.0 °F78 %29.81 in10.0 miENE (60°)26.5 mph33.4 mphMostly Cloudy
5:55 AM75.7 °F69.8 °F82 %29.81 in10.0 miENE (60°)21.9 mph32.2 mphMostly Cloudy
6:34 AM75.2 °F69.8 °F83 %29.82 in8.0 miENE (60°)25.3 mph31.1 mphRainLight Rain
6:42 AM75.2 °F71.6 °F89 %29.83 in9.0 miNE (50°)19.6 mph31.1 mphScattered Clouds
6:46 AM75.2 °F71.6 °F89 %29.83 in8.0 miENE (60°)25.3 mph32.2 mphRainLight Rain
6:51 AM75.2 °F69.8 °F83 %29.83 in8.0 miENE (60°)20.7 mph32.2 mphLight Drizzle
6:55 AM74.7 °F70.2 °F86 %29.83 in9.0 miENE (60°)21.9 mph29.9 mph0.00 inRainLight Rain
6:56 AM75.2 °F69.8 °F83 %29.83 in10.0 miENE (60°)21.9 mph29.9 mphScattered Clouds
7:17 AM77.0 °F71.6 °F83 %29.83 in10.0 miNE (50°)24.2 mph29.9 mphMostly Cloudy
7:21 AM77.0 °F71.6 °F83 %29.83 in7.0 miENE (60°)25.3 mph31.1 mphLight Drizzle
7:33 AM77.0 °F69.8 °F78 %29.84 in10.0 miENE (60°)24.2 mph32.2 mphScattered Clouds
7:55 AM77.4 °F69.6 °F77 %29.84 in10.0 miENE (60°)24.2 mph29.9 mph0.00 inClear
8:36 AM78.8 °F71.6 °F78 %29.84 in10.0 miENE (60°)24.2 mph29.9 mphMostly Cloudy
8:47 AM78.8 °F69.8 °F74 %29.84 in10.0 miENE (70°)21.9 mph28.8 mphScattered Clouds
8:55 AM79.0 °F69.8 °F73 %29.84 in10.0 miENE (60°)18.4 mph27.6 mphPartly Cloudy
9:55 AM81.3 °F71.6 °F72 %29.84 in10.0 miENE (70°)19.6 mphClear
10:55 AM83.3 °F72.3 °F69 %29.82 in10.0 miNE (50°)20.7 mphScattered Clouds
11:41 AM82.4 °F73.4 °F74 %29.81 in10.0 miNE (50°)20.7 mphMostly Cloudy
11:51 AM82.4 °F73.4 °F74 %29.81 in10.0 miENE (60°)21.9 mphScattered Clouds
11:55 AM82.9 °F73.2 °F72 %29.81 in10.0 miNE (50°)24.2 mphMostly Cloudy
12:07 PM82.4 °F71.6 °F70 %29.80 in10.0 miENE (60°)23.0 mph31.1 mphScattered Clouds
12:15 PM82.4 °F73.4 °F74 %29.80 in10.0 miENE (60°)20.7 mph31.1 mphMostly Cloudy
12:39 PM82.4 °F71.6 °F70 %29.79 in10.0 miENE (70°)23.0 mph29.9 mphMostly Cloudy
12:55 PM82.8 °F73.0 °F72 %29.79 in10.0 miENE (60°)21.9 mph25.3 mphScattered Clouds
1:08 PM82.4 °F73.4 °F74 %29.79 in10.0 miENE (60°)18.4 mph27.6 mphMostly Cloudy
1:31 PM82.4 °F71.6 °F70 %29.78 in10.0 miENE (60°)23.0 mph32.2 mphMostly Cloudy
1:55 PM83.7 °F72.0 °F68 %29.78 in10.0 miENE (60°)21.9 mph29.9 mphPartly Cloudy
2:55 PM81.7 °F71.2 °F70 %29.76 in10.0 miENE (70°)25.3 mph32.2 mphScattered Clouds
3:24 PM82.4 °F71.6 °F70 %29.75 in10.0 miENE (70°)24.2 mphMostly Cloudy
3:27 PM82.4 °F71.6 °F70 %29.75 in10.0 miENE (70°)23.0 mphScattered Clouds
3:55 PM81.0 °F71.4 °F73 %29.76 in10.0 miENE (70°)23.0 mph28.8 mphPartly Cloudy
4:53 PM80.6 °F73.4 °F79 %29.77 in10.0 miENE (60°)19.6 mphMostly Cloudy
4:55 PM80.8 °F72.1 °F75 %29.77 in10.0 miENE (70°)21.9 mphMostly Cloudy
4:59 PM80.6 °F71.6 °F74 %29.77 in10.0 miENE (70°)18.4 mphMostly Cloudy
5:55 PM79.3 °F72.1 °F79 %29.78 in10.0 miENE (70°)20.7 mph26.5 mphMostly Cloudy
6:28 PM78.8 °F71.6 °F78 %29.79 in8.0 miENE (70°)21.9 mph28.8 mphDrizzle
6:41 PM77.0 °F73.4 °F89 %29.79 in10.0 miENE (70°)21.9 mphScattered Clouds
6:55 PM77.2 °F72.5 °F85 %29.80 in10.0 miENE (70°)23.0 mph27.6 mph0.00 inScattered Clouds
7:16 PM77.0 °F73.4 °F89 %29.81 in10.0 miENE (70°)20.7 mph25.3 mphMostly Cloudy
7:20 PM77.0 °F73.4 °F89 %29.81 in10.0 miENE (70°)19.6 mph25.3 mphMostly Cloudy
7:44 PM77.0 °F73.4 °F89 %29.82 in10.0 miEast (80°)20.7 mph28.8 mphMostly Cloudy
7:55 PM77.2 °F72.3 °F85 %29.82 in10.0 miEast (80°)18.4 mph26.5 mphMostly Cloudy
8:11 PM77.0 °F73.4 °F89 %29.82 in10.0 miEast (80°)21.9 mph32.2 mphMostly Cloudy
8:22 PM77.0 °F73.4 °F89 %29.82 in10.0 miEast (80°)19.6 mph26.5 mphMostly Cloudy
8:55 PM77.2 °F73.2 °F88 %29.83 in10.0 miEast (80°)19.6 mphScattered Clouds
9:03 PM77.0 °F73.4 °F89 %29.83 in10.0 miEast (80°)17.3 mph26.5 mphMostly Cloudy
9:12 PM77.0 °F73.4 °F89 %29.83 in10.0 miEast (80°)17.3 mph26.5 mphMostly Cloudy
9:13 PM77.0 °F73.4 °F89 %29.83 in10.0 miENE (70°)17.3 mph26.5 mphScattered Clouds
9:53 PM77.0 °F73.4 °F89 %29.84 in10.0 miEast (80°)18.4 mph26.5 mphMostly Cloudy
9:55 PM77.9 °F73.6 °F86 %29.84 in10.0 miEast (80°)17.3 mph26.5 mphMostly Cloudy
10:12 PM77.0 °F73.4 °F89 %29.84 in10.0 miENE (70°)23.0 mphScattered Clouds
10:33 PM78.8 °F73.4 °F83 %29.84 in10.0 miENE (70°)21.9 mph28.8 mphMostly Cloudy
10:55 PM78.1 °F72.7 °F83 %29.84 in10.0 miEast (80°)19.6 mph31.1 mphMostly Cloudy
11:05 PM78.8 °F71.6 °F78 %29.84 in10.0 miEast (80°)20.7 mph27.6 mphScattered Clouds
11:17 PM78.8 °F73.4 °F83 %29.83 in9.0 miEast (80°)20.7 mph26.5 mphMostly Cloudy
11:19 PM78.8 °F73.4 °F83 %29.84 in9.0 miENE (70°)20.7 mph26.5 mphMostly Cloudy
11:20 PM78.8 °F73.4 °F83 %29.84 in9.0 miENE (70°)23.0 mph26.5 mphMostly Cloudy
11:22 PM77.0 °F73.4 °F89 %29.84 in9.0 miEast (80°)20.7 mph26.5 mphMostly Cloudy
11:40 PM78.8 °F73.4 °F83 %29.84 in10.0 miEast (80°)19.6 mph27.6 mphMostly Cloudy
11:44 PM78.8 °F73.4 °F83 %29.83 in10.0 miEast (80°)18.4 mph26.5 mphMostly Cloudy
11:54 PM78.8 °F73.4 °F83 %29.84 in10.0 miENE (70°)20.7 mphMostly Cloudy
11:55 PM78.1 °F73.6 °F86 %29.84 in10.0 miENE (70°)20.7 mphMostly Cloudy
11:57 PM78.8 °F73.4 °F83 %29.84 in10.0 miENE (70°)19.6 mphMostly Cloudy
Hourly data recorded from PGUA, located miles away from Achang Bay, Guam







STORIES FROM OUR PARTNERS